This is the latest recevied weather packets stored in our database for station/object IW1PPB-3. If no packets are shown the sender has not sent any weather packets the latest 1 day(s).
| Time | Temp. | Humidity | Pressure | Rain* | Wind** | Luminosity | Snow |
|---|---|---|---|---|---|---|---|
| 1777975413 | 17.22° C | - | - | 0 mm | 0.89 m/s, 360° | - | - |
| 1777974823 | 16.67° C | - | - | 0 mm | 0.89 m/s, 360° | - | - |
| 1777974233 | 16.67° C | - | - | 0 mm | 0.45 m/s, 360° | - | - |
| 1777973614 | 16.67° C | - | - | 0 mm | 0.45 m/s, 360° | - | - |
| 1777973010 | 16.67° C | - | - | 0 mm | 0.45 m/s, 360° | - | - |
| 1777972420 | 16.67° C | - | - | 0 mm | 0.89 m/s, 360° | - | - |
| 1777971831 | 16.67° C | - | - | 1.02 mm | 0.89 m/s, 360° | - | - |
| 1777971216 | 16.11° C | - | - | 2.03 mm | 0.89 m/s, 360° | - | - |
| 1777970616 | 16.11° C | - | - | 2.03 mm | 0.45 m/s, 360° | - | - |
| 1777970009 | 16.11° C | - | - | 2.03 mm | 1.79 m/s, 360° | - | - |
| 1777969410 | 15.56° C | - | - | 2.03 mm | 2.24 m/s, 360° | - | - |
| 1777968823 | 15.56° C | - | - | 2.03 mm | 2.68 m/s, 360° | - | - |
| 1777968224 | 15.56° C | - | - | 1.02 mm | 4.47 m/s, 360° | - | - |
| 1777967608 | 16.11° C | - | - | 0 mm | 1.79 m/s, 360° | - | - |
| 1777967013 | 15.56° C | - | - | 0 mm | 0.89 m/s, 360° | - | - |
| 1777966410 | 15.56° C | - | - | 0 mm | 0 m/s | - | - |
| 1777965816 | 15.56° C | - | - | 0 mm | 0 m/s | - | - |
| 1777965204 | 15° C | - | - | 0 mm | 0 m/s | - | - |
| 1777964618 | 15° C | - | - | 0 mm | 0.45 m/s, 360° | - | - |
| 1777964007 | 15° C | - | - | 0 mm | 0.45 m/s, 360° | - | - |
| 1777963415 | 15° C | - | - | 0 mm | 0 m/s | - | - |
| 1777962818 | 15° C | - | - | 0 mm | 0.45 m/s, 360° | - | - |
| 1777962205 | 15° C | - | - | 0 mm | 0 m/s | - | - |
| 1777961604 | 14.44° C | - | - | 0 mm | 0.89 m/s, 360° | - | - |
| 1777961019 | 13.89° C | - | - | 0 mm | 0.45 m/s, 360° | - | - |
* Rain latest hour (hover to see other rain measurements)
** Current wind speed in m/s (hover to see current wind gust speed)